Regional Weather Roundup
Issued by NWS

Home | Current Version | Previous Version | Graphics & Text | Print | Product List | Glossary On
Versions: 1 2 3 4 5 6 7 8 9 10 11 12 13 14 15 16 17 18 19 20 21 22 23 24 25 26 27 28 29 30 31 32 33 34 35 36 37 38 39 40 41 42 43 44 45 46 47 48 49 50
000
ASUS43 KMPX 250801
RWRMN
WEATHER ROUNDUP FOR MINNESOTA
NATIONAL WEATHER SERVICE TWIN CITIES/CHANHASSEN MN
300 AM CDT THU MAY 25 2017


NOTE: "FAIR" INDICATES FEW OR NO CLOUDS BELOW 12,000 FEET WITH NO
SIGNIFICANT WEATHER AND/OR OBSTRUCTIONS TO VISIBILITY. N/A MEANS
CURRENT SKY AND/OR WEATHER CONDITIONS ARE NOT AVAILABLE.

MNZ060>063-068>070-250900-
   Twin Cities Metro

CITY           SKY/WX    TMP DP  RH WIND       PRES   REMARKS
TWIN CITIES    CLEAR     52  46  80 E7        29.69F
ST PAUL        PTCLDY    50  48  93 CALM      29.70S
CRYSTAL        CLEAR     47  44  90 E3        29.68F
BLAINE         CLEAR     48  48 100 CALM      29.69
LAKEVILLE      CLEAR     45  45 100 E3        29.69  FOG
EDEN PRAIRIE   CLEAR     50  47  89 E5        29.67F
SOUTH ST PAUL  PTCLDY    49  47  95 CALM      29.70
LAKE ELMO      FAIR      46  46 100 NE3       29.71
$$
MNZ001>005-007-008-013>017-022>024-027-028-250900-
   Northwest Minnesota

CITY           SKY/WX    TMP DP  RH WIND       PRES   REMARKS
BEMIDJI        CLEAR     46  42  85 E7        29.68
HALLOCK        CLOUDY    52  43  71 SE13      29.61
ROSEAU         PTCLDY    48  43  81 SE10      29.65
WARROAD        PTCLDY    48  43  81 SE8       29.67
CROOKSTON      CLEAR     48  43  81 SE9       29.64
FOSSTON        CLEAR     43  37  81 E5        29.66
DETROIT LAKES  CLEAR     46  43  87 SE7       29.65
MOORHEAD       PTCLDY    52  41  66 SE9       29.62
PARK RAPIDS    PTCLDY    51  42  71 SE7       29.66F
MAHNOMEN       FAIR      47  42  82 SE6       29.64F
$$
MNZ006-009>011-018-025>026-250900-
   North Central Minnesota

CITY           SKY/WX    TMP DP  RH WIND       PRES   REMARKS
BAUDETTE       CLEAR     44  39  82 SE8       29.69F
FLAG ISLAND    CLEAR     54  45  71 S18       29.67
INTL FALLS     CLEAR     41  36  82 E6        29.72S
WASKISH        CLEAR     46  41  81 SE3       29.70
BIG FORK       CLEAR     45  39  81 S5        29.72
LONGVILLE      MOCLDY    45  43  93 CALM      29.70
GRAND RAPIDS   CLEAR     42  39  89 CALM      29.73F
CRANE LAKE     CLEAR     34  32  93 CALM      29.76
COOK           CLEAR     36  34  93 CALM      29.73
WALKER         PTSUNNY   49  43  81 E6        29.68S
$$
MNZ012-019>021-037-250900-
   Northeast Minnesota

CITY           SKY/WX    TMP DP  RH WIND       PRES   REMARKS
DULUTH         CLEAR     43  41  93 E8        29.72F
ELY            CLEAR     34  34 100 CALM      29.75
HIBBING        CLEAR     34  34 100 CALM      29.72F
EVELETH        CLEAR     37  36  94 CALM      29.74
DULUTH HARBOR  CLEAR     45  41  87 E12       29.75
TWO HARBORS    CLEAR     43  37  81 CALM      29.74
SILVER BAY     CLEAR     34  34 100 CALM      29.74
GRAND MARAIS     N/A     42  39  89 NE5       29.76F
G MARAIS ARPRT CLEAR     36  30  80 NE6       29.77
$$
MNZ029>031-032-039>041-046>048-054>057-064-250900-
   West Central Minnesota

CITY           SKY/WX    TMP DP  RH WIND       PRES   REMARKS
FERGUS FALLS   PTCLDY    52  41  66 SE12      29.62
WHEATON        CLEAR     48  45  87 SE13      29.62
MORRIS         PTCLDY    48  45  87 SE12      29.63
ALEXANDRIA     CLEAR     46  40  79 SE6       29.66F
ELBOW LAKE     FAIR      50  42  74 E12       29.63
WADENA         CLEAR     46  43  87 SE3       29.66
GLENWOOD       CLEAR     43  41  93 E5        29.66
APPLETON       CLEAR     50  45  81 SE9       29.63
BENSON         CLEAR     48  45  87 S8        29.67
ORTONVILLE     CLEAR     48  45  87 SE12      29.62
MADISON        CLEAR     50  48  93 SE8       29.63
WILLMAR        FAIR      48  45  87 SE6       29.67
$$
MNZ033>034-036-042>043-049>051-058-059-250900-
   Central Minnesota

CITY           SKY/WX    TMP DP  RH WIND       PRES   REMARKS
ST CLOUD       PTCLDY    49  48  97 E3        29.69F
SAUK CENTRE    FAIR      47  43  88 E6        29.67
PAYNESVILLE    CLEAR     48  48  99 SE5       29.67
AITKIN         CLOUDY    45  41  87 CALM      29.69
PINE RIVER     CLOUDY    48  43  81 E7        29.73
BRAINERD       CLOUDY    50  44  80 VRB5      29.69F
STAPLES        MOCLDY    50  43  76 E5        29.67
LONG PRAIRIE   FAIR      45  43  93 E6        29.67
LITTLE FALLS   CLEAR     48  43  81 E3        29.69
LITCHFIELD     CLEAR     46  46 100 E5        29.68
BUFFALO        CLEAR     45  42  91 CALM      29.69
MAPLE LAKE     CLEAR     45  45  99 CALM      29.70  FOG
HUTCHINSON     CLOUDY    46  43  91 E5        29.69
$$
MNZ037-044-045-052-053-250900-
   East Central Minnesota

CITY           SKY/WX    TMP DP  RH WIND       PRES   REMARKS
PRINCETON      PTCLDY    52  46  82 E3        29.70
MORA           CLOUDY    48  43  81 CALM      29.72
CAMBRIDGE      CLOUDY    54  45  71 CALM      29.69
RUSH CITY      CLOUDY    52  47  84 CALM      29.71
MOOSE LAKE     CLEAR     41  37  87 NE3       29.71
HINCKLEY       CLOUDY    50  45  81 NE3       29.71
CLOQUET        CLEAR     43  39  87 E3        29.73
MCGREGOR       CLOUDY    45  43  93 E5        29.72
$$
MNZ071>073-080-081-089-090-097-098-250900-
   Southwest Minnesota

CITY           SKY/WX    TMP DP  RH WIND       PRES   REMARKS
MONTEVIDEO     CLEAR     48  46  93 S8        29.65
CANBY          CLEAR     47  45  92 CALM      29.64
MARSHALL       CLEAR     46  44  93 SE8       29.65S
REDWOOD FALLS  CLEAR     49  44  83 SE6       29.66S
OLIVIA         CLEAR     50  43  76 SE6       29.66
PIPESTONE      CLEAR     48  39  71 SE8       29.63
WINDOM         CLEAR     48  45  87 SE7       29.66
WORTHINGTON    CLEAR     49  44  83 SE8       29.67S
JACKSON        CLEAR     46  45  93 CALM      29.66
TRACY          CLEAR     49  46  89 S8        29.66
SLAYTON        CLEAR     43  42  95 SE3       29.67
$$
MNZ065>067-074>077-082>085-091>093-250900-
   South Central Minnesota

CITY           SKY/WX    TMP DP  RH WIND       PRES   REMARKS
NEW ULM        CLEAR     48  45  87 SE5       29.67
ST JAMES       CLEAR     46  46 100 E5        29.67
FAIRMONT       CLEAR     48  46  93 SE3       29.67F
GLENCOE        CLEAR     46  46 100 CALM      29.68
FARIBAULT      CLEAR     46  45  93 CALM      29.69
OWATONNA       CLEAR     46  45  93 CALM      29.69
WASECA         CLEAR     45  43  93 CALM      29.70
ALBERT LEA     CLEAR     46  46 100 CALM      29.68
$$
MNZ078>079-086>088-094>096-250900-
   Southeast Minnesota

CITY           SKY/WX    TMP DP  RH WIND       PRES   REMARKS
ROCHESTER      CLEAR     49  48  97 SE3       29.70S
RED WING       CLEAR     48  46  93 CALM      29.69
STANTON        PTCLDY    49  47  92 CALM      29.68
DODGE CENTER   CLEAR     48  46  93 CALM      29.69
WINONA         PTCLDY    48  46  93 CALM      29.71
AUSTIN         FOG       48  46  93 CALM      29.69  VSB 1
PRESTON        CLOUDY    50  47  90 E6        29.69
$$
ABBREVIATIONS USED IN REMARKS
   TC - TEMPERATURES IN CELSIUS
  WCI - WIND CHILL INDEX
   HX - HEAT INDEX
  VSB - VISIBILITY
$$




USA.gov is the U.S. government's official web portal to all federal, state and local government web resources and services.